Location: Lee (historical)
(37.1789°N, 88.9097°W)
Time: 00:14:58
(UTC+00:00)

Daily predictions for brighter satellites

Satellite Brightness Start Highest point End
(mag) Time Altitude Azimuth Time Altitude Azimuth Time Altitude Azimuth
Cosmos 1709 Rocket 4.4 00:42:43 10° NNW 00:48:48 69° W 00:54:51 10° S
STARLINK-29 3.6 00:47:10 10° WSW 00:50:18 58° NW 00:53:27 10° NE
NOSS 3-4 (A) 4.5 00:50:49 10° NNW 00:57:28 41° NE 01:04:41 10° ESE
NOSS 3-4 (C) 4.5 00:50:56 10° NNW 00:57:34 40° NE 01:04:46 10° ESE
SL-8 R/B 4.0 00:54:27 10° WNW 00:59:11 68° SW 01:03:54 10° SE
SeaSat 1 2.8 00:56:00 10° NNE 01:00:55 71° WNW 01:05:48 10° SW
H-2A R/B 2.5 00:58:57 10° SE 01:03:50 43° ENE 01:08:37 10° N
YAOGAN 1 3.8 01:00:27 10° S 01:04:35 45° W 01:08:45 10° NNW
ATLAS 5 CENTAUR R/B 1.4 01:00:59 10° SSW 01:05:00 85° ESE 01:09:26 10° NNE
SJ-6B 4.1 01:02:14 10° SE 01:05:38 25° ENE 01:09:03 10° NNE
Cosmos 2074 Rocket 4.1 01:00:47 10° N 01:07:03 63° E 01:13:15 10° SSE
Cosmos 1140 Rocket 3.7 01:03:13 10° S 01:08:10 47° ESE 01:13:07 10° NNE
Ariane Rocket 3.1 01:06:28 10° SSE 01:11:25 58° ENE 01:16:23 10° N
FREGAT/IRIS 3.1 01:12:04 12° SE 01:14:18 33° ENE 01:16:48 10° N
Cosmos 614 Rocket 4.1 01:10:09 10° SSW 01:15:23 84° WNW 01:20:37 10° NNE
APEX 4.5 01:12:39 10° NNW 01:18:35 48° ENE 01:22:43 14° SE
Cosmos 1437 2.9 01:16:23 10° NNW 01:19:23 67° W 01:22:21 10° S
COSMOS 2455 3.9 01:14:28 10° N 01:19:38 29° NE 01:23:28 15° ESE
Hubble Space Telescope 2.3 01:16:33 10° SW 01:19:48 22° S 01:21:59 15° SE
CZ-2C R/B 3.0 01:15:41 10° SSE 01:20:26 55° ENE 01:25:05 10° N
Cosmos 1726 3.5 01:18:26 10° SSW 01:22:00 43° W 01:25:35 10° N
Cosmos 1943 Rocket 3.9 01:17:24 10° NW 01:22:18 32° WSW 01:27:13 10° SSW
Cosmos 1190 Rocket 4.0 01:17:49 10° SSW 01:23:07 78° ESE 01:28:25 10° NNE
Meteor 1-16 Rocket 4.5 01:18:06 10° SSW 01:23:28 71° W 01:29:02 10° N
Cosmos 2058 Rocket 3.3 01:21:21 10° SSE 01:25:43 51° E 01:30:06 10° NNE
USA 234 4.1 01:21:19 10° ENE 01:26:28 24° ESE 01:31:35 10° S
ARGOS Delta rocket 4.4 01:22:13 10° S 01:27:30 75° W 01:32:59 10° NNW
Cosmos 1726 Rocket 3.5 01:23:14 10° S 01:27:38 89° E 01:32:06 10° N
Cosmos 1908 3.2 01:24:22 10° S 01:28:13 85° W 01:32:07 10° N
ATLAS 2AS CENTAUR R/B 2.9 01:22:23 10° NNW 01:29:50 66° NE 01:35:25 16° SE
Cosmos 1703 3.2 01:26:10 10° N 01:30:09 75° E 01:34:06 10° SSE
Cosmos 1340 Rocket 2.8 01:26:33 10° S 01:30:33 64° E 01:34:32 10° NNE
CZ-2C R/B 4.0 01:26:11 10° NNE 01:30:40 45° E 01:35:02 10° S
Cosmos 1461 3.7 01:26:41 10° NNW 01:31:03 42° NE 01:33:42 21° ESE
SL-08 RB Rocket 4.0 01:28:45 14° SE 01:32:22 45° ENE 01:36:46 10° N
Aureole 1 Rocket 4.5 01:25:55 10° SSW 01:33:39 74° WNW 01:39:46 10° NNE
SL-24 R/B 3.9 01:30:45 10° NNE 01:34:26 45° E 01:37:55 10° S
Cosmos 921 Rocket 3.7 01:31:37 10° N 01:35:25 33° ENE 01:37:02 25° ESE
Cosmos 2228 3.7 01:33:19 10° SSW 01:37:32 57° W 01:41:48 10° N
Cosmos 1328 3.7 01:33:39 10° N 01:37:40 89° E 01:41:39 10° S
USA 186 1.8 01:37:16 11° S 01:40:27 81° W 01:43:39 10° NNW
CZ-3 Stage 3 4.3 01:33:46 10° WSW 01:40:31 65° SSE 02:23:47 10° E
Cosmos 1825 Rocket 4.1 01:36:19 10° NNW 01:40:37 59° W 01:44:52 10° S
Cosmos 2369 Rocket 4.0 01:35:46 10° NW 01:40:40 31° WSW 01:45:32 10° SSW
STARLINK-67 3.6 01:38:26 10° NNW 01:40:43 28° NE 01:40:54 27° NE
Cosmos 407 Rocket 4.4 01:43:32 10° SW 01:48:31 49° WNW 01:53:29 10° N
Resurs 01 Rocket 2.6 01:47:58 26° E 01:48:36 27° ENE 01:52:19 10° NNE
DMSP B5D2-2 4.1 01:47:11 10° NNE 01:52:21 58° E 01:57:30 10° S
Cosmos 676 Rocket 3.9 01:47:06 10° SSW 01:52:23 85° ESE 01:57:40 10° NNE
COSMOS 2406 4.0 02:00:24 29° E 02:00:24 29° E 02:04:34 10° NE
MetOp-A 4.1 01:58:56 26° SSE 02:01:58 68° ENE 02:07:18 10° N
MOS 1 Rocket 3.6 01:57:17 10° NNE 02:02:42 68° E 02:08:04 10° S
OE (NEXTSAT) 4.2 02:00:07 10° WSW 02:03:37 89° NNW 02:04:15 58° ENE
Cosmos 1953 Rocket 4.5 01:59:32 10° NNW 02:03:52 49° W 02:08:11 10° SSW
STARLINK-1234 4.1 02:01:50 10° NNW 02:04:24 31° NNE 02:04:24 31° NNE
STARLINK-1209 4.0 02:02:13 10° NNW 02:04:49 33° NNE 02:04:49 33° NNE
SPOT 3 Rocket 3.5 02:05:21 27° SSE 02:08:18 83° ENE 02:13:31 10° NNW
Abrixas rocket 3.7 02:06:15 10° NNW 02:08:27 24° NNE 02:08:27 24° NNE
Cosmos 2341 Rocket 4.0 02:03:18 10° N 02:09:41 68° E 02:13:10 28° SSE
CZ-2C R/B 2.4 02:07:30 10° NNE 02:12:42 78° ESE 02:17:56 10° S
ARGOS 3.9 02:07:57 10° S 02:13:10 50° W 02:18:24 10° NNW
Cosmos 1954 Rocket 4.4 02:08:38 10° SSW 02:13:49 63° WNW 02:19:01 10° N
GEOS 3 Rocket 4.2 02:11:51 23° S 02:14:48 51° WSW 02:19:52 10° NW
STARLINK-1235 4.2 02:13:40 10° NNW 02:15:55 33° N 02:15:55 33° N
STARLINK-1187 4.4 02:14:08 10° NNW 02:16:20 30° N 02:16:20 30° N
GPS 2-04 Rocket1 3.4 02:15:58 10° WSW 02:19:02 41° SSW 02:19:02 41° SSW
Cosmos 2218 Rocket 4.2 02:14:21 10° N 02:20:23 49° E 02:21:33 44° ESE
Cosmos 1741 Rocket 4.0 02:21:42 53° SE 02:22:11 56° ESE 02:27:24 10° NNE
Meteor 2-1 Rocket 4.3 02:30:17 53° SE 02:31:21 63° E 02:37:14 10° NNE
Cosmos 2181 Rocket 3.9 02:26:47 16° S 02:32:00 89° W 02:38:14 10° N
SL-8 Rocket 3.9 02:25:47 10° N 02:32:06 74° E 02:33:53 49° SSE
Cosmos 1763 Rocket 4.5 02:27:42 10° N 02:31:38 31° NE 02:31:38 31° NE
Cosmos 864 Rocket 4.5 02:27:27 10° N 02:33:33 56° E 02:34:08 54° ESE
BREEZE-M DEB (TANK) 4.5 02:32:03 10° NW 02:34:48 33° NNW 02:34:48 33° NNW
Cosmos 1300 4.3 02:37:23 19° SW 02:39:31 33° WNW 02:43:01 10° NNW
Iridium 4 Rocket 4.4 02:36:09 10° N 02:38:18 28° NNE 02:38:18 28° NNE
H-2A R/B 4.4 02:39:37 10° SW 02:43:22 20° W 02:47:05 10° NW
Cosmos 2366 rocket 3.8 02:40:14 10° N 02:46:24 75° E 02:47:02 69° SE
Cosmos 1980 Rocket 4.3 02:47:14 10° NNE 02:49:06 13° NE 02:49:06 13° NE
Cosmos 1959 Rocket 4.3 02:44:01 10° N 02:50:19 84° E 02:51:06 70° SSE
Hubble Space Telescope 3.6 02:57:13 10° WSW 02:57:19 10° WSW 02:57:19 10° WSW
Spot 2 Rocket 3.9 03:02:59 58° N 03:02:59 58° N 03:07:06 10° N
Terra 4.1 03:05:23 15° NNE 03:05:23 15° NNE 03:06:31 10° NNE
COSMOS 2455 3.6 03:00:01 10° NW 03:05:42 44° WSW 03:06:39 41° SW
USA 234 3.2 03:03:16 10° NE 03:09:49 79° NW 03:16:21 10° SW
ATLAS 2AS CENTAUR R/B 4.5 03:14:44 10° WNW 03:19:59 22° WSW 03:22:54 17° SW
Cosmos 1833 Rocket 4.2 03:25:25 27° NNE 03:25:25 27° NNE 03:27:55 10° NNE
ERS-1 Rocket 4.4 03:26:58 31° N 03:26:58 31° N 03:29:35 10° N
Resurs 01 Rocket 3.7 03:25:31 23° W 03:25:31 23° W 03:28:36 10° NW
ATLAS 5 CENTAUR R/B 4.2 03:24:15 10° SW 04:06:39 10° ESE 04:07:17 10° ESE
CZ-4C R/B 3.6 03:56:39 10° NNW 04:02:32 47° NNE 04:02:32 47° NNE
Cosmos 1697 Rocket 4.2 03:58:32 10° NNW 04:01:27 32° NNW 04:01:27 32° NNW
Cosmos 1980 Rocket 4.3 04:28:55 10° NNW 04:30:53 22° NNW 04:30:53 22° NNW
Cosmos 2344 4.5 04:59:04 10° NNW 05:08:35 80° NNW 05:08:35 80° NNW
SL-16 R/B 4.4 06:49:01 25° NNE 06:49:01 25° NNE 06:52:15 10° N
Resurs 1-4 Rocket 4.5 07:12:16 10° NNE 07:13:43 19° NNE 07:13:43 19° NNE
Cosmos 2227 Rocket 4.4 07:20:46 20° NE 07:20:46 20° NE 07:22:43 10° NE
CZ-2D R/B 4.0 07:45:56 10° N 07:48:18 27° N 07:48:18 27° N
SL-16 R/B 4.2 07:52:59 10° N 07:57:33 24° ENE 08:02:04 10° ESE
USA 238 DEB 4.2 08:01:50 52° NNE 08:01:50 52° NNE 08:06:59 10° NNE
USA 238 4.2 08:01:56 53° NNE 08:01:56 53° NNE 08:07:06 10° NNE
Cosmos 2237 Rocket 4.2 08:13:46 10° NNW 08:15:18 19° NNW 08:15:18 19° NNW
CENTAUR R/B 2.8 08:21:28 60° NE 08:21:28 60° NE 08:26:58 10° NE
NOSS 3-2 (A) 4.2 08:24:15 43° N 08:24:15 43° N 08:29:02 10° NNE
SL-16 R/B 4.2 08:34:06 20° NW 08:34:06 20° NW 08:36:07 10° NNW
H-2A R/B 4.0 08:35:25 26° NNE 08:35:25 26° NNE 08:37:29 10° N
Cosmos 2297 Rocket 3.4 08:36:12 33° NNW 08:36:12 33° NNW 08:39:50 10° N
Cosmos 2279 Rocket 4.2 08:33:42 10° N 08:39:56 66° E 08:41:02 56° SE
ADEOS II 2.9 08:35:48 10° N 08:39:24 43° N 08:39:24 43° N
ARIANE 5 R/B 3.0 08:38:11 10° NNE 08:42:26 59° NNE 08:42:26 59° NNE
Spot 4 Rocket 4.2 08:44:46 10° NNE 08:49:32 68° ENE 08:49:32 68° ENE
IDEFIX/ARIANE 42P 3.6 08:45:40 10° NNE 08:50:33 40° E 08:51:46 35° SE
Meteor 2-4 Rocket 4.1 08:52:53 56° SE 08:53:55 66° E 08:59:44 10° NNE
NOSS 3-2 (C) 3.8 08:56:26 48° NW 08:56:26 48° NW 09:02:21 10° NNE
Resurs 1-4 Rocket 4.2 08:53:23 10° NNW 08:54:48 14° NW 08:54:48 14° NW
Cosmos 2227 Rocket 3.5 09:02:35 27° NW 09:02:35 27° NW 09:06:31 10° N
Cosmos 494 Rocket 4.0 09:02:08 10° NNW 09:07:26 79° ENE 09:09:15 42° SSE
Cosmos 1300 Rocket 4.3 09:05:33 10° N 09:09:45 50° E 09:10:59 37° SE
BREEZE-M DEB 4.2 09:09:58 53° W 09:11:12 67° NNW 09:28:03 10° ENE
COBE Rocket 4.2 09:11:25 25° SSE 09:14:03 60° ENE 09:18:40 10° N
Cosmos 2180 Rocket 4.4 09:11:40 10° N 09:17:55 78° W 09:20:42 36° S
ATLAS 3B R/B 2.5 09:18:39 53° SW 09:20:18 74° WNW 09:26:58 10° NNE
Cosmos 2221 Rocket 4.0 09:22:29 51° NW 09:22:29 51° NW 09:26:05 10° N
USA 267 3.3 09:18:11 10° NE 09:24:41 69° NW 09:26:53 43° WSW
Cosmos 1818 3.5 09:24:35 10° NNW 09:30:04 85° ENE 09:35:29 10° SSE
CZ-4B R/B 2.9 09:26:56 10° SE 09:30:08 38° ENE 09:33:24 10° N
Okean 2 Rocket 3.0 09:25:41 10° N 09:30:11 74° W 09:30:36 68° SW
Cosmos 2151 Rocket 3.6 09:27:48 10° N 09:32:12 76° E 09:34:53 23° SSE
Timation 1 Rocket 4.4 09:33:00 32° SSW 09:35:54 80° ESE 09:41:56 10° NNE
Lacrosse 5 4.4 09:37:52 10° SSE 09:40:26 14° ESE 09:43:00 10° E
Cosmos 1867 3.5 09:39:06 45° SW 09:40:43 69° WNW 09:46:10 10° NNE
SL-16 R/B 2.4 09:36:28 10° NW 09:41:50 45° WSW 09:43:46 33° SSW
Cosmos 1269 Rocket 3.9 09:36:45 10° NNW 09:42:03 72° WSW 09:47:18 10° S
MSX 3.8 09:42:20 10° NNE 09:48:08 85° WNW 09:52:25 19° SSW
CZ-2C R/B 2.9 09:48:31 10° NNE 09:53:00 54° E 09:57:29 10° S
Meteor 1-13 Rocket 4.4 09:55:55 28° SW 09:58:38 50° WNW 10:04:06 10° N
ATLAS 5 CENTAUR R/B 2.5 09:52:41 10° NNW 09:58:44 84° ENE 10:05:38 10° SSE
Cosmos 1437 Rocket 3.6 09:55:58 10° S 09:59:56 53° E 10:03:54 10° NNE
Gbstr 26 Del rocket 3.8 09:57:15 29° WSW 10:00:39 71° NW 10:05:59 10° NE
ATLAS 5 CENTAUR R/B 1.7 10:01:32 24° SW 10:04:27 77° NW 10:07:00 10° NNE
Cosmos 1603 3.9 09:59:33 10° NNW 10:05:11 74° ENE 10:10:49 10° SSE
Cosmos 2263 Rocket 2.2 10:02:22 23° SW 10:05:57 67° WNW 10:11:38 10° NNE
Shenzhou-11 Module 1.4 10:05:54 74° WNW 10:06:01 77° NNW 10:08:35 10° ENE
Cosmos 1092 Rocket 4.0 10:02:39 11° SSW 10:08:48 64° W 10:15:04 10° N
Cosmos 1975 Rocket 4.3 10:06:05 10° SSE 10:10:11 43° E 10:14:21 10° NNE
Okean 1 Rocket 3.0 10:06:03 10° N 10:10:27 88° E 10:14:52 10° S
STARLINK-43 3.2 10:08:08 13° NW 10:11:18 72° SW 10:14:57 10° SE
CZ-2C R/B 4.3 10:08:43 10° NNW 10:11:36 19° WNW 10:11:44 19° WNW
Meteor 1-4 Rocket 3.9 10:11:35 24° WNW 10:11:39 24° WNW 10:14:44 10° NNW
CENTAUR R/B 4.0 10:08:39 15° WNW 10:11:52 21° NW 10:17:02 10° N
Meteor 1-23 Rocket 4.2 10:10:25 10° SSW 10:16:05 67° W 10:21:51 10° N
Cosmos 2026 Rocket 3.9 10:10:45 10° S 10:16:50 77° W 10:22:54 10° N
Meteor 1-31 Rocket 3.9 10:14:31 10° NNE 10:18:18 46° E 10:22:03 10° S
Cosmos 1674 Rocket 4.5 10:22:22 20° WSW 10:24:21 29° WNW 10:28:09 10° NNW
Cosmos 1428 Rocket 4.4 10:19:10 10° SSW 10:25:15 73° W 10:31:28 10° N
Meteor 1-15 Rocket 4.2 10:21:18 10° NNW 10:26:53 68° W 10:32:31 10° S
IDEFIX/ARIANE 42P 3.8 10:25:54 10° NNW 10:29:51 22° WNW 10:32:34 15° WSW
SeaSat 1 3.4 10:27:37 10° SE 10:32:23 52° ENE 10:37:11 10° NNW
PAYLOAD A 4.5 10:32:24 10° N 10:37:27 44° WNW 10:42:20 10° SW
ALOS 3.3 10:37:32 10° NNE 10:42:05 50° E 10:46:37 10° S
BREEZE-M DEB (TANK) 3.5 10:41:59 10° S 10:43:53 19° SE 10:45:42 10° E
Cosmos 1378 3.4 10:41:54 10° SSW 10:45:29 46° W 10:49:06 10° N
Cosmos 1766 3.2 10:43:19 10° N 10:47:12 83° W 10:51:03 10° S
ADEOS 4.3 10:48:35 10° N 10:53:14 34° WNW 10:57:52 10° SW
STARLINK-55 3.9 10:51:51 10° NW 10:54:59 50° NE 10:58:06 10° ESE
STARLINK-1150 3.4 10:51:27 10° SW 10:55:06 80° SE 10:58:48 10° NE
Cosmos 1733 3.2 10:52:19 10° N 10:56:10 89° E 11:00:01 10° S
Cosmos 1943 3.4 10:52:49 10° NNW 10:58:18 49° WSW 11:03:44 10° S
STARLINK-1151 3.3 10:54:50 10° SW 10:58:22 81° SE 11:01:56 10° NE
STARLINK-28 3.5 10:56:04 10° NW 10:59:15 62° NE 11:02:25 10° ESE
STARLINK-1133 3.3 10:56:46 10° SW 11:00:19 84° SE 11:03:52 10° NE
FENGYUN 3A 3.9 10:55:54 10° NNE 11:01:18 79° ESE 11:06:40 10° S
Cosmos 1553 Rocket 4.1 10:55:27 10° NNW 11:01:44 69° W 11:08:05 10° S
STARLINK-1139 3.2 10:58:43 10° SW 11:02:15 88° SE 11:05:50 10° NE
Cosmos 1842 3.3 10:58:31 10° SSW 11:02:22 62° W 11:06:16 10° N
STARLINK-1174 3.2 11:00:40 10° SW 11:04:14 88° NW 11:07:48 10° NE
Lacrosse 4 Rocket 2.2 11:01:04 10° SSW 11:05:20 60° ESE 11:09:44 10° NNE
Cosmos 1655 Rocket 4.1 10:59:13 10° SSW 11:05:32 72° W 11:11:52 10° N
Cosmos 1844 4.3 11:00:11 10° S 11:05:37 61° ESE 11:11:07 10° NNE
